Wetbulb
41.12 39.38 38.05 36.87 35.40 33.96 33.16 33.31 34.08 34.00 33.78 33.81 34.43 33.90 33.27 32.09 31.13 29.94 29.06 28.51 28.61 28.22
35.87 35.67 34.59 33.93 33.76 32.84 32.99 34.06 33.00 33.04 32.54 32.45 32.84 32.63 31.60 30.42 29.42 28.88 28.54 28.08 27.81 27.28
33.72 33.64 33.49 33.10 32.03 31.62 32.06 32.31 32.02 31.62 31.46 31.24 31.59 31.20 30.13 28.62 28.58 27.90 27.98 27.80 26.91 26.42
32.41 32.69 32.90 32.35 31.58 31.29 31.23 31.19 31.13 30.97 30.57 30.25 29.75 29.59 28.75 27.89 27.47 26.76 26.58 26.66 26.07 25.46
32.08 32.31 31.74 31.14 30.73 30.57 29.90 30.29 30.26 30.13 29.70 29.32 28.58 27.73 27.34 27.11 26.60 25.78 25.85 25.95 25.30 24.23
31.33 31.28 30.75 30.30 30.14 29.75 29.19 28.93 29.07 28.78 28.03 28.02 27.83 26.97 27.00 26.91 26.72 25.85 25.30 23.94 22.75 22.54
30.21 30.62 30.42 30.29 29.75 28.98 28.52 27.60 27.31 27.40 27.48 27.87 27.22 27.12 26.79 26.48 25.63 24.98 24.37 24.51 23.62 23.04
30.45 30.16 29.63 29.16 28.78 27.96 27.24 27.13 26.99 26.68 26.67 26.66 27.11 27.44 26.02 26.12 24.52 22.84 21.94 22.49 23.59 23.53
29.42 28.46 28.08 27.96 27.30 26.95 26.44 25.92 25.74 25.50 25.38 25.33 27.51 30.95 30.70 26.99 24.14 23.44 22.36 21.23 21.60 21.89
28.52 27.79 27.35 27.32 26.99 26.65 25.58 25.17 24.86 24.56 24.54 24.62 25.24 31.79 31.60 29.61 24.56 22.90 21.72 21.51 21.41 21.24
28.48 27.72 26.88 26.61 26.27 25.70 25.46 25.03 24.42 24.55 24.88 24.73 25.48 31.43 31.38 29.75 23.85 22.33 21.88 21.92 21.52 20.79
28.90 27.50 26.61 26.22 25.67 24.96 24.98 24.79 24.86 25.66 24.86 24.60 25.07 31.40 31.29 27.53 22.47 22.01 21.25 21.96 21.35 20.54
28.36 27.84 26.86 26.42 24.97 23.84 23.72 25.27 25.45 25.70 24.12 23.97 24.22 31.17 31.12 26.37 22.16 20.10 19.48 20.35 21.02 22.55
26.99 27.07 26.20 24.24 22.54 22.14 22.25 23.79 22.03 22.70 21.57 22.04 23.61 26.57 31.03 29.30 21.92 20.27 18.50 18.53 18.99 20.75
MSLP
1023.81 1024.28 1024.79 1025.23 1025.74 1026.15 1026.41 1026.62 1026.63 1026.75 1026.85 1026.95 1026.93 1026.99 1027.03 1027.13 1027.27 1027.43 1027.45 1027.46 1027.41 1027.53
1024.22 1024.57 1024.95 1025.41 1025.78 1026.17 1026.42 1026.51 1026.81 1026.95 1027.10 1027.23 1027.34 1027.45 1027.58 1027.78 1027.84 1027.86 1027.95 1027.94 1027.95 1027.95
1024.52 1024.88 1025.21 1025.54 1025.94 1026.31 1026.58 1026.80 1027.02 1027.26 1027.44 1027.59 1027.71 1027.79 1027.91 1028.16 1028.26 1028.30 1028.40 1028.44 1028.60 1028.60
1024.71 1025.04 1025.36 1025.68 1026.09 1026.39 1026.69 1026.96 1027.18 1027.33 1027.44 1027.59 1027.83 1027.92 1028.17 1028.35 1028.48 1028.50 1028.46 1028.55 1028.78 1028.74
1024.78 1025.10 1025.43 1025.75 1026.17 1026.49 1026.85 1027.01 1027.11 1027.26 1027.52 1027.73 1027.95 1028.12 1028.36 1028.53 1028.80 1028.93 1028.94 1029.05 1029.08 1029.20
1024.80 1025.13 1025.40 1025.77 1026.14 1026.44 1026.76 1027.05 1027.40 1027.69 1027.91 1028.10 1028.22 1028.40 1028.60 1028.83 1029.07 1029.23 1029.46 1029.54 1029.66 1029.71
1024.69 1024.93 1025.25 1025.65 1026.06 1026.48 1026.87 1027.39 1027.66 1027.78 1027.88 1028.08 1028.29 1028.43 1028.58 1028.86 1029.20 1029.54 1029.83 1030.01 1030.07 1030.05
1024.37 1024.76 1025.21 1025.70 1026.14 1026.59 1026.95 1027.23 1027.50 1027.73 1027.91 1028.00 1028.17 1028.26 1028.60 1028.83 1029.29 1029.73 1030.11 1030.44 1030.41 1030.45
1024.14 1024.63 1025.16 1025.65 1026.12 1026.51 1026.90 1027.32 1027.54 1027.60 1027.70 1027.88 1027.85 1027.84 1028.21 1028.69 1029.25 1029.86 1030.28 1030.65 1030.81 1030.80
1023.85 1024.39 1024.86 1025.35 1025.84 1026.21 1026.57 1026.95 1027.12 1027.27 1027.40 1027.73 1027.82 1027.57 1027.84 1028.40 1029.04 1029.69 1030.04 1030.45 1030.78 1030.84
1023.33 1023.85 1024.44 1024.98 1025.46 1025.87 1026.30 1026.56 1026.75 1027.12 1027.34 1027.52 1027.57 1027.39 1027.52 1028.12 1028.98 1029.34 1029.77 1030.08 1030.47 1030.60
1022.62 1023.43 1024.09 1024.59 1025.07 1025.52 1025.94 1026.24 1026.38 1026.73 1027.13 1027.28 1027.37 1027.16 1027.27 1028.01 1028.75 1029.11 1029.51 1029.75 1030.13 1030.47
1022.12 1022.79 1023.39 1023.81 1024.49 1025.00 1025.41 1025.58 1026.12 1026.47 1026.67 1026.96 1027.00 1026.92 1027.11 1028.08 1028.61 1028.86 1029.29 1029.78 1030.13 1030.49
1021.63 1022.20 1022.67 1023.46 1024.14 1024.68 1025.22 1025.61 1026.00 1026.21 1026.36 1026.71 1026.89 1027.10 1026.90 1027.36 1028.39 1028.61 1029.29 1029.70 1030.13 1030.40
Wind_Speed
7 4 4 5 4 4 3 3 3 4 5 5 5 4 4 3 4 5 4 6 5 3
6 7 6 6 5 4 4 3 4 4 5 5 5 5 5 4 4 4 3 4 4 3
6 6 6 6 6 6 5 4 5 4 5 5 5 5 5 4 4 5 3 3 5 4
6 6 6 5 5 5 5 5 5 5 5 5 4 4 5 4 4 4 4 4 4 4
6 6 6 6 6 6 6 4 5 5 5 4 4 4 4 4 3 4 4 4 4 4
6 6 6 6 6 6 6 5 4 4 4 4 4 4 4 4 4 4 4 4 5 5
7 7 6 6 6 6 5 5 4 4 5 4 4 5 5 5 5 5 5 4 4 3
7 6 6 6 6 6 6 5 5 5 4 5 5 4 5 5 5 5 5 4 5 4
7 7 7 6 6 6 6 6 6 6 6 6 3 8 9 7 5 5 5 4 4 3
7 8 7 7 7 7 7 6 7 6 6 5 5 9 10 11 5 6 5 5 5 4
9 9 8 8 8 6 5 8 6 6 6 5 5 10 10 12 6 5 6 5 5 4
10 9 10 10 9 6 6 6 5 5 7 6 5 12 12 10 6 7 6 5 5 5
9 10 11 10 10 4 3 5 5 6 6 6 6 14 14 11 5 6 5 4 5 8
8 10 8 7 4 5 4 4 5 6 5 6 7 8 16 16 6 6 5 5 4 3
Wind_Direction
136 133 133 143 138 132 127 133 111 94 77 69 76 76 75 73 67 57 51 51 49 43
120 131 137 127 124 131 135 134 116 100 94 77 73 68 63 63 64 67 53 49 46 51
138 133 131 129 136 141 131 112 115 98 87 79 79 82 84 70 54 69 45 47 44 32
149 143 138 138 144 137 121 127 123 127 121 113 108 101 97 94 87 89 80 62 67 54
150 150 148 149 140 133 135 139 148 145 131 119 114 107 120 104 96 94 77 63 60 32
166 163 165 154 148 148 151 158 140 127 131 129 127 116 104 113 109 94 80 65 55 31
176 179 170 161 158 159 154 147 152 155 144 141 137 142 140 132 117 97 78 73 71 60
183 173 161 159 163 159 163 169 168 153 151 158 165 164 154 137 127 118 106 93 88 64
174 170 169 168 172 170 170 169 165 178 180 180 180 179 169 152 141 139 138 128 111 95
176 178 177 168 173 180 180 176 187 189 180 186 187 187 178 169 150 156 153 155 163 164
182 180 175 178 185 177 176 193 185 184 185 184 193 197 185 172 159 154 164 170 179 168
186 179 178 187 187 184 184 191 186 179 184 183 190 194 188 168 155 163 169 178 164 166
180 182 190 185 181 172 176 190 182 186 182 179 177 197 194 173 162 157 155 153 158 179
181 185 180 160 153 161 172 159 185 189 175 178 179 204 197 190 185 170 167 170 173 198